Tracking 35237 objects as of 5-Sep-2026
HD Live streaming from Space Station
objects crossing your sky now

BDSAT


BDSAT is no longer on orbit
BDSAT is classified as:


NORAD ID: 52175
Int'l Code: 2022-033U
Launch date: April 1, 2022
Source: (TBD)
Launch site: AIR FORCE EASTERN TEST RANGE (AFETR)
Decay date: 2024-04-18

Uplink (MHz):
Downlink (MHz): 145.850/436.025*
Beacon (MHz): 436.025
Mode: 9k6*GFSK CW
Call sign: OK0BDS
Status: Reentered

Your satellite tracking list
Your tracking list is empty




NASA's NSSDC Master Catalog

Two Line Element Set (TLE):
1 52175U 22033U   24067.34029857  .16715966  25302-5  23107-3 0  9991
2 52175  97.2914 163.2519 0013068 266.1292  93.8518 16.48365845108516
Source of the keplerian elements: AFSPC